Regional Weather Roundup
Issued by NWS Glasgow, MT

Home | Current Version | Previous Version | Text Only | Print | Product List | Glossary On
Versions: 1 2 3 4 5 6 7 8 9 10 11 12 13 14 15 16 17 18 19 20 21 22 23 24 25 26 27 28 29 30 31 32 33 34 35 36 37 38 39 40 41 42 43 44 45 46 47 48 49 50
414
ASUS45 KGGW 260115
RWRGGW
HOURLY REGIONAL WEATHER ROUNDUP FOR NORTHEAST MONTANA
NATIONAL WEATHER SERVICE GLASGOW MONTANA
700 PM MDT THU AUG 25 2016

NOTE: "FAIR" INDICATES FEW OR NO CLOUDS BELOW 12,000 FEET WITH NO
SIGNIFICANT WEATHER AND/OR OBSTRUCTIONS TO VISISBILITY.

NORTHEAST MONTANA


CITY           SKY/WX    TMP DP  RH WIND       PRES   REMARKS
GLASGOW        CLOUDY    68  43  40 VRB5      30.09F
PLENTYWOOD       N/A     67  43  41 NW9G18      N/A
WOLF POINT     CLOUDY    72  41  32 SW8       30.09S
JORDAN           N/A     70  34  26 MISG      30.12S
WINNETT          N/A     68  33  27 E1          N/A
SIDNEY         CLOUDY    68  40  35 SW6       30.10S
GLENDIVE       CLOUDY    69  39  33 W6        30.13F
MALTA            N/A     69  43  38 NE5G13      N/A
SCOBEY           N/A     67  42  40 CALM      30.08

FORT PECK REPORTS


CITY           SKY/WX    TMP DP  RH WIND       PRES   REMARKS
FORT PECK        N/A     70  47  43 S12         N/A
THE PINES        N/A     71  36  27 S6          N/A

SOUTHEAST MONTANA


CITY           SKY/WX    TMP DP  RH WIND       PRES   REMARKS
BILLINGS       MOSUNNY   68  37  32 NE9       30.14F
MILES CITY     CLEAR     69  35  28 S5        30.14F
BAKER          CLOUDY    66  38  35 NW8       30.17F
LIVINGSTON     CLOUDY    66  32  28 E10       30.14S

CENTRAL MONTANA


CITY           SKY/WX    TMP DP  RH WIND       PRES   REMARKS
HAVRE          PTSUNNY   68  41  37 N13       30.12S
LEWISTOWN      CLOUDY    64  35  34 NW3       30.17F
GREAT FALLS    CLOUDY    66  35  31 E6        30.15S
CUT BANK       CLOUDY    60  45  57 NW15      30.20S
HELENA         MOSUNNY   69  34  27 NE6       30.13F
BUTTE          CLOUDY    63  28  26 SE13      30.17S
BOZEMAN        CLOUDY    67  32  27 W6        30.14S

WESTERN MONTANA


CITY           SKY/WX    TMP DP  RH WIND       PRES   REMARKS
MISSOULA       SUNNY     75  32  20 N14       30.09F
KALISPELL      NOT AVBL

NORTH DAKOTA


CITY           SKY/WX    TMP DP  RH WIND       PRES   REMARKS
WILLISTON      PTCLDY    73  37  27 W7        30.08S
DICKINSON      PTCLDY    66  37  34 SW6       30.12F
MINOT          CLEAR     69  42  37 N5        30.06S
BISMARCK       CLOUDY    65  47  52 SW6       30.12S

SOUTHERN SASKATCHEWAN


CITY           SKY/WX    TMP DP  RH WIND       PRES   REMARKS
REGINA         MOCLDY    64  52  63 W14       30.05R
ESTEVAN        MOCLDY    68  43  40 W6        30.05S
SWIFT CURRENT  CLEAR     61  46  59 W13G21    30.08S





USA.gov is the U.S. government's official web portal to all federal, state and local government web resources and services.